Weather in Forpost-Kargat

Russia / Novosibirsk Oblast     55°16′33″N   80°26′32″E
temp.,
°C
wind,
m/s
gust,
m/s
humid.,
%
clouds,
%
prec.,
mm/h
press.,
hPa
HPBL,
m
2 march, tue
tue201:00−14ne369695 0.3 1011159
04:00−15nne2397100 0.1 101272
07:00−17nne229796 0.2 101420
10:00−17n129681 0.1 101558
13:00−14wnw119088 0.1 1015274
16:00−12w2287100 0.1 1015416
19:00−14wsw1296100 0.1 101622
22:00−18wsw1299100 0.1 101620
3 march, wed
wed301:00−19wsw229999 0.1 101620
04:00−21sw2210069 0.0 101620
07:00−21ssw239969 0.0 101820
10:00−17ssw249682 0.1 1018137
13:00−13ssw359384 0.1 1018361
16:00−11ssw5792100 0.0 1018440
19:00−13s4994100 0.1 1019256
22:00−14ssw6139499 0.0 1019403
4 march, thu
thu401:00−15s71493100 0.1 1019373
04:00−11ssw71592100 0.3 1017548
07:00−10ssw71392100 0.7 1017511
10:00−9ssw81491100 0.1 1016508
13:00−7ssw81491100 0.6 1015628
16:00−5ssw81591100 0.2 1014684
19:00−4ssw81593100 0.4 1013742
22:00−4ssw91691100 0.4 1012752
5 march, fri
fri501:00−4ssw81689100 0.6 1011666
04:00−6ssw81588100 0.1 1010534
07:00−8ssw71490100 0.1 1009429
10:00−8ssw71193100 0.2 1008432
13:00−5sw61194100 0.7 1009545
16:00−3w7108396 0.1 1011846
19:00−7sw6138868 0.1 1015441
22:00−8ssw9178766 0.0 1016576
6 march, sat
sat601:00−7sw10189083 0.2 1015885
04:00−6sw111792100 0.5 1014918
07:00−5sw101793100 0.9 1014939
10:00−5sw101690100 0.6 1014862
13:00−5sw101590100 0.8 1015817
16:00−5sw91490100 0.1 1015830
19:00−6sw81491100 0.3 1015686
22:00−6sw61292100 0.1 1017631